Temp
7 6 6 6 6 5 5 5 5 5 5 5 5 5 5 5 5 5 5 5 5 5 5 5 5 5 4 5 5 4 4 4 4 4 4 4 4 4 4 4 4 4 4
6 6 5 5 5 5 5 5 5 5 5 5 5 5 5 5 5 5 4 4 4 4 5 5 5 5 5 4 4 4 4 4 4 4 4 4 4 4 4 4 4 4 3
6 5 5 5 5 4 4 4 4 5 5 5 5 5 5 5 5 5 4 5 5 4 4 4 4 4 5 4 4 4 4 4 4 4 4 4 3 3 3 3 3 3 3
6 5 5 5 4 4 4 4 5 5 5 5 5 5 5 4 4 4 4 4 4 4 4 4 4 4 3 3 3 3 3 3 3 3 3 3 3 3 3 3 3 3 3
5 5 5 5 5 5 5 5 4 4 4 4 4 4 4 4 4 4 4 4 4 3 3 3 3 2 2 2 3 1 1 2 2 2 2 3 3 3 3 3 3 3 3
5 5 5 5 5 5 5 4 4 4 4 4 4 4 4 4 4 4 4 4 4 3 2 2 1 1 1 1 1 1 0 1 1 1 1 1 2 2 2 2 2 2 2
6 5 5 5 4 4 4 4 4 4 3 3 4 5 4 4 4 3 3 3 2 2 0 -1 0 -0 -0 0 -0 -1 -1 -1 -1 -0 0 1 0 1 1 1 1 2 2
5 4 4 4 4 3 4 4 4 4 4 3 4 4 4 5 4 3 2 2 2 1 1 1 0 -0 -1 -1 -1 -1 -2 -2 -1 -1 -1 -1 -0 -0 0 0 1 0 1
4 4 3 3 3 3 3 4 4 3 3 3 2 1 2 2 3 3 3 1 1 0 -0 -0 -1 -1 -1 -1 -1 -1 -1 -2 -2 -2 -2 -1 -1 -1 -1 -1 -1 -1 -0
3 3 3 3 3 3 3 3 3 3 2 2 1 0 -1 -1 -1 0 1 0 -1 -1 -1 -1 -1 -1 -1 -1 -1 -1 -2 -2 -3 -2 -2 -2 -2 -2 -2 -2 -2 -1 -1
3 3 3 3 3 3 3 3 2 2 1 1 -0 -1 -1 -1 -2 -2 -1 -1 -1 -1 -2 -2 -2 -2 -2 -2 -2 -2 -2 -3 -2 -3 -4 -4 -5 -5 -4 -3 -3 -3 -4
3 2 2 2 2 2 2 2 1 1 -0 -1 -1 -2 -2 -2 -2 -2 -2 -2 -2 -2 -2 -3 -3 -3 -3 -4 -4 -5 -5 -5 -5 -5 -5 -5 -6 -6 -6 -6 -6 -4 -3
2 2 2 2 2 2 2 1 -0 -1 -1 -2 -2 -2 -2 -3 -3 -3 -3 -3 -3 -3 -3 -3 -3 -4 -5 -7 -7 -8 -8 -8 -8 -8 -7 -7 -7 -7 -7 -8 -7 -6 -4
1 2 2 2 2 1 0 -1 -1 -2 -2 -2 -2 -3 -3 -3 -4 -4 -4 -4 -4 -4 -3 -3 -4 -5 -7 -8 -9 -10 -10 -10 -10 -10 -10 -10 -9 -9 -9 -9 -9 -8 -6
1 1 1 1 0 -0 -1 -1 -2 -2 -3 -3 -3 -3 -4 -4 -4 -4 -5 -6 -6 -5 -4 -3 -5 -6 -8 -10 -11 -12 -12 -11 -11 -11 -11 -11 -11 -12 -13 -11 -12 -13 -12
0 0 0 -0 -1 -1 -2 -2 -3 -3 -3 -4 -4 -4 -4 -4 -5 -5 -6 -6 -8 -9 -7 -6 -7 -8 -9 -10 -12 -13 -13 -13 -12 -12 -12 -13 -16 -15 -15 -15 -14 -15 -13
0 -0 -0 -1 -2 -2 -3 -3 -3 -4 -4 -4 -4 -5 -5 -6 -6 -6 -7 -8 -9 -11 -12 -8 -9 -10 -10 -11 -11 -13 -14 -14 -13 -13 -13 -14 -14 -13 -14 -15 -15 -14 -14
-1 -1 -1 -2 -3 -3 -3 -4 -4 -4 -5 -5 -5 -6 -6 -7 -7 -8 -8 -9 -11 -12 -13 -13 -11 -11 -12 -12 -12 -13 -14 -14 -15 -14 -15 -14 -13 -14 -16 -15 -14 -12 -12
-1 -2 -2 -3 -3 -4 -4 -4 -5 -5 -5 -6 -6 -7 -7 -8 -8 -9 -10 -11 -12 -13 -14 -16 -14 -13 -13 -14 -14 -14 -14 -14 -15 -15 -15 -14 -14 -14 -14 -13 -14 -16 -14
-2 -2 -3 -4 -4 -5 -5 -5 -5 -6 -6 -7 -8 -8 -9 -9 -9 -11 -12 -13 -14 -15 -15 -17 -18 -16 -16 -15 -16 -16 -15 -15 -14 -14 -14 -14 -15 -14 -14 -14 -14 -14 -14
-3 -4 -4 -5 -5 -5 -6 -6 -7 -7 -7 -8 -8 -9 -9 -10 -11 -13 -14 -15 -16 -16 -17 -18 -18 -18 -18 -16 -16 -15 -15 -14 -14 -15 -14 -13 -14 -14 -14 -14 -14 -14 -14
-4 -5 -5 -5 -5 -6 -7 -7 -8 -8 -8 -9 -9 -9 -10 -11 -12 -13 -14 -15 -17 -18 -18 -18 -19 -18 -17 -16 -16 -16 -16 -15 -14 -15 -15 -12 -14 -13 -13 -13 -13 -13 -14
-5 -5 -5 -6 -7 -7 -8 -8 -8 -9 -9 -10 -10 -10 -11 -12 -14 -14 -14 -15 -17 -18 -18 -19 -19 -17 -16 -16 -16 -16 -16 -16 -15 -15 -15 -12 -14 -13 -13 -13 -13 -14 -13
-5 -6 -7 -7 -7 -8 -8 -9 -9 -9 -10 -10 -11 -12 -13 -13 -14 -15 -16 -18 -18 -18 -17 -18 -18 -17 -17 -17 -17 -17 -16 -16 -15 -15 -16 -13 -13 -13 -14 -14 -14 -14 -14
-6 -7 -7 -8 -8 -8 -9 -10 -10 -10 -10 -11 -12 -13 -14 -15 -15 -18 -19 -19 -18 -16 -17 -17 -17 -16 -17 -17 -17 -17 -16 -17 -16 -16 -16 -16 -16 -15 -15 -14 -14 -14 -14
-7 -8 -8 -8 -8 -9 -10 -11 -12 -13 -13 -13 -13 -14 -15 -16 -16 -18 -19 -18 -17 -17 -17 -16 -16 -16 -16 -16 -17 -17 -17 -17 -17 -16 -16 -17 -16 -16 -14 -14 -14 -14 -14
Height
3115 3113 3112 3110 3109 3107 3105 3104 3102 3100 3098 3096 3094 3092 3090 3088 3086 3085 3083 3082 3081 3079 3077 3076 3074 3072 3069 3067 3066 3065 3065 3064 3064 3063 3063 3062 3062 3062 3062 3063 3063 3064 3065
3111 3110 3108 3107 3105 3104 3102 3100 3098 3096 3093 3091 3089 3087 3085 3083 3082 3080 3077 3075 3073 3071 3070 3068 3066 3064 3062 3060 3058 3057 3057 3055 3054 3054 3053 3053 3052 3052 3052 3053 3053 3054 3055
3108 3107 3105 3103 3102 3100 3097 3095 3094 3091 3088 3086 3083 3081 3079 3078 3076 3074 3071 3068 3065 3064 3061 3059 3057 3054 3051 3050 3048 3047 3046 3045 3044 3043 3042 3042 3041 3041 3042 3042 3042 3043 3043
3106 3104 3102 3101 3098 3096 3093 3091 3088 3086 3083 3080 3077 3076 3073 3071 3068 3066 3063 3060 3056 3053 3051 3048 3046 3044 3042 3039 3037 3034 3033 3033 3032 3032 3030 3030 3029 3029 3029 3029 3030 3031 3031
3102 3100 3099 3097 3094 3091 3088 3086 3083 3080 3077 3074 3071 3068 3065 3063 3060 3057 3052 3049 3048 3044 3040 3037 3034 3031 3029 3026 3025 3024 3022 3021 3020 3019 3018 3017 3016 3015 3015 3015 3016 3016 3017
3097 3096 3093 3091 3088 3086 3083 3080 3077 3075 3070 3066 3063 3059 3057 3054 3051 3045 3043 3039 3037 3034 3030 3026 3023 3019 3017 3014 3012 3010 3009 3008 3006 3005 3003 3002 3001 3000 3000 3000 3000 3001 3002
3094 3092 3089 3087 3084 3080 3078 3074 3070 3067 3064 3058 3053 3050 3047 3045 3041 3037 3033 3029 3026 3022 3019 3016 3012 3010 3006 3003 3000 2997 2993 2991 2989 2987 2987 2985 2984 2984 2984 2984 2984 2985 2986
3090 3088 3085 3082 3079 3076 3072 3068 3063 3059 3056 3050 3042 3036 3031 3033 3029 3026 3023 3020 3017 3013 3009 3006 3001 2998 2995 2991 2987 2984 2980 2977 2973 2971 2968 2968 2968 2968 2969 2968 2967 2967 2969
3086 3083 3080 3077 3073 3069 3065 3061 3056 3050 3047 3045 3038 3027 3018 3013 3007 3009 3009 3007 3004 3000 2997 2992 2988 2984 2981 2976 2972 2969 2965 2961 2957 2953 2953 2951 2949 2948 2948 2949 2948 2949 2951
3081 3077 3074 3071 3067 3062 3057 3053 3048 3042 3037 3033 3031 3027 3020 3009 2999 2986 2990 2993 2991 2987 2984 2979 2973 2968 2964 2959 2956 2951 2947 2941 2936 2937 2934 2930 2930 2928 2926 2925 2925 2929 2927
3076 3072 3068 3064 3059 3055 3050 3045 3040 3035 3029 3024 3018 3013 3011 3007 3002 2989 2971 2973 2973 2970 2967 2964 2961 2956 2949 2944 2939 2934 2928 2924 2922 2918 2914 2909 2906 2904 2905 2906 2906 2904 2901
3070 3066 3061 3056 3051 3046 3042 3037 3032 3027 3021 3017 3012 3006 2999 2993 2986 2980 2971 2964 2955 2953 2949 2944 2941 2932 2926 2920 2916 2913 2906 2906 2902 2896 2892 2890 2885 2882 2882 2883 2881 2881 2880
3063 3058 3054 3048 3043 3038 3033 3028 3024 3018 3013 3008 3003 2997 2992 2986 2979 2970 2960 2950 2940 2938 2933 2932 2924 2914 2907 2899 2895 2891 2887 2884 2881 2876 2873 2870 2866 2862 2859 2859 2859 2859 2862
3055 3051 3046 3041 3035 3030 3025 3020 3015 3010 3005 3000 2994 2988 2981 2976 2968 2961 2951 2940 2926 2922 2919 2917 2911 2902 2890 2883 2877 2872 2868 2863 2860 2857 2853 2850 2846 2843 2840 2837 2835 2836 2838
3048 3043 3038 3033 3028 3022 3017 3012 3006 3001 2995 2989 2983 2977 2970 2964 2956 2949 2941 2931 2918 2902 2898 2902 2890 2889 2876 2868 2860 2856 2851 2848 2845 2841 2835 2831 2829 2824 2822 2819 2817 2816 2816
3041 3036 3030 3025 3020 3015 3009 3003 2998 2992 2985 2979 2972 2964 2959 2952 2944 2937 2929 2919 2909 2897 2881 2888 2877 2870 2863 2854 2847 2840 2837 2832 2829 2826 2821 2816 2813 2810 2806 2803 2802 2801 2800
3033 3028 3023 3018 3012 3007 3001 2995 2989 2982 2974 2968 2961 2953 2947 2938 2931 2923 2914 2905 2895 2885 2872 2867 2862 2856 2849 2840 2835 2827 2822 2816 2813 2811 2807 2803 2798 2795 2791 2788 2786 2784 2782
3025 3020 3015 3010 3004 2999 2992 2985 2977 2971 2964 2956 2948 2941 2934 2926 2918 2909 2900 2891 2881 2872 2861 2850 2847 2839 2833 2828 2821 2813 2808 2804 2799 2795 2792 2787 2784 2779 2776 2772 2769 2767 2766
3019 3013 3007 3002 2997 2990 2982 2975 2967 2960 2953 2944 2936 2928 2921 2912 2903 2895 2886 2876 2868 2859 2851 2840 2830 2827 2820 2814 2806 2801 2793 2789 2785 2780 2775 2773 2768 2764 2762 2758 2754 2753 2752
3011 3006 3001 2994 2987 2980 2972 2964 2956 2949 2942 2934 2926 2917 2908 2900 2891 2881 2872 2863 2854 2846 2838 2830 2821 2813 2808 2801 2793 2786 2778 2776 2769 2765 2762 2758 2752 2751 2747 2744 2741 2739 2738
3003 2998 2991 2985 2978 2970 2963 2954 2945 2937 2930 2922 2914 2906 2899 2889 2880 2871 2861 2853 2845 2837 2829 2821 2812 2803 2797 2788 2782 2774 2765 2758 2755 2751 2746 2744 2739 2736 2734 2731 2728 2727 2725
2996 2990 2983 2975 2969 2962 2952 2944 2935 2926 2919 2910 2903 2896 2886 2877 2868 2860 2851 2843 2838 2829 2820 2812 2803 2792 2784 2777 2770 2762 2754 2746 2735 2741 2733 2727 2725 2722 2720 2718 2716 2714 2713
2989 2981 2975 2967 2959 2951 2943 2934 2925 2917 2909 2901 2893 2883 2874 2866 2857 2848 2840 2831 2825 2818 2813 2803 2790 2782 2772 2767 2759 2750 2744 2736 2729 2725 2722 2711 2713 2707 2706 2703 2700 2698 2697
2980 2974 2966 2958 2949 2941 2933 2925 2916 2908 2900 2891 2881 2872 2862 2854 2845 2836 2827 2819 2812 2805 2799 2790 2781 2772 2766 2759 2752 2742 2733 2724 2718 2714 2712 2700 2698 2690 2689 2687 2684 2681 2680
2973 2965 2957 2948 2939 2932 2923 2915 2905 2897 2888 2880 2870 2860 2851 2843 2834 2826 2818 2809 2800 2793 2787 2780 2773 2766 2758 2751 2743 2732 2724 2714 2705 2702 2701 2690 2684 2678 2675 2672 2671 2669 2667
2963 2955 2947 2940 2932 2924 2915 2905 2895 2884 2875 2868 2860 2851 2843 2834 2825 2818 2811 2799 2789 2783 2774 2768 2763 2757 2750 2741 2734 2726 2716 2705 2697 2688 2692 2680 2675 2671 2661 2663 2661 2660 2659
Wind_Speed
19 19 20 21 22 23 24 25 26 28 29 30 30 30 31 32 33 33 33 32 31 32 33 33 33 36 38 38 37 37 38 38 39 39 39 40 41 40 40 40 41 41 42
19 20 21 23 23 24 26 28 30 31 33 33 33 33 32 32 32 32 33 35 35 36 36 37 38 38 38 39 41 40 40 41 41 42 43 43 44 44 44 44 44 44 45
20 22 24 25 27 29 31 33 34 35 36 36 36 36 36 34 34 35 36 37 37 38 38 38 39 41 42 41 40 41 41 43 45 45 45 46 47 47 47 48 47 47 47
25 26 28 30 31 33 35 36 36 36 36 37 37 37 38 37 37 38 39 40 41 42 42 42 42 42 40 41 42 44 45 45 45 45 47 50 50 50 50 50 51 52 52
27 29 31 33 34 35 36 36 36 37 38 39 40 40 41 43 44 44 44 45 43 40 40 42 42 43 45 45 43 40 40 42 44 46 48 51 54 54 54 54 53 54 55
28 29 31 31 33 34 35 36 36 37 40 42 44 46 46 45 44 46 44 43 42 40 41 42 43 45 46 47 47 44 44 44 44 45 46 50 53 54 56 58 57 57 57
25 27 28 30 32 33 34 36 39 41 43 47 48 47 44 42 41 40 39 40 40 41 40 40 43 43 43 44 44 45 48 49 50 51 50 52 47 51 55 56 58 60 61
23 25 27 29 31 34 37 40 44 46 45 45 48 48 48 42 41 39 38 39 39 41 43 43 45 45 45 46 46 47 48 50 52 52 53 53 55 58 57 55 57 58 61
22 24 27 30 33 37 40 43 43 43 42 41 41 45 48 50 52 49 46 44 45 45 45 47 48 48 48 49 50 51 51 52 54 55 54 54 55 56 57 61 64 62 57
24 27 31 34 38 40 40 40 40 42 42 41 38 36 39 45 50 59 54 49 48 49 49 50 51 53 53 54 53 54 56 58 60 59 59 61 60 59 60 60 64 65 67
27 32 35 38 37 37 39 39 39 39 39 40 41 41 41 41 43 50 62 58 56 54 54 54 53 54 55 56 57 58 59 61 61 62 63 64 64 63 63 63 63 62 64
32 35 37 38 38 39 39 38 37 37 38 39 39 41 43 45 48 51 55 59 62 61 60 60 59 61 61 61 60 59 61 59 58 59 60 62 65 68 65 62 67 70 72
36 39 39 39 40 39 38 37 37 38 39 39 40 42 43 45 48 51 56 61 65 65 64 62 62 64 63 61 60 57 56 53 52 54 55 56 60 62 66 65 67 70 70
41 42 42 41 40 38 38 38 38 39 40 41 42 43 45 46 49 51 55 60 67 67 66 64 63 63 62 60 56 53 50 50 48 49 51 53 57 60 61 60 61 65 67
43 43 43 41 39 38 39 39 40 42 43 43 44 46 48 49 51 53 55 57 61 70 71 66 67 62 60 57 54 49 48 47 46 46 47 48 48 48 48 53 53 51 54
44 44 43 40 39 39 41 42 43 45 46 45 47 49 50 51 53 54 56 57 57 59 69 65 65 62 58 56 54 51 50 49 47 44 43 41 40 41 44 45 47 46 49
45 43 41 40 40 41 43 45 46 47 47 48 49 51 51 52 54 55 56 56 57 56 59 64 61 58 56 55 54 53 50 49 48 45 42 43 47 48 47 45 44 45 46
44 42 41 41 42 43 45 48 49 48 48 49 50 52 52 53 54 55 55 56 56 54 54 57 57 57 55 52 53 52 51 48 48 47 50 51 46 46 42 43 45 43 42
42 41 41 42 44 46 48 48 48 48 49 50 51 52 52 53 55 55 55 55 54 53 52 53 58 56 55 52 53 52 52 53 54 56 51 45 45 44 43 44 43 41 41
41 41 42 44 46 48 48 49 49 49 49 50 50 51 52 54 55 54 54 53 52 52 54 52 52 59 56 53 56 58 62 58 55 51 47 44 43 37 36 35 35 35 36
41 42 44 46 47 48 47 48 49 51 51 51 51 52 53 54 52 51 49 49 50 51 47 50 55 52 57 58 60 58 56 53 50 49 47 40 39 38 34 33 33 34 35
41 44 46 48 48 46 47 48 50 51 51 52 53 53 54 53 52 51 50 49 44 41 47 50 51 58 60 55 50 49 49 51 54 46 47 42 43 38 36 34 34 33 32
43 46 46 46 46 47 48 49 50 51 51 52 53 54 54 53 51 51 51 49 47 45 44 50 55 52 50 44 45 48 48 51 52 51 49 49 46 45 42 41 41 38 38
45 45 44 46 48 49 50 50 50 51 52 53 53 54 53 53 52 51 49 47 45 50 48 45 46 43 41 42 44 48 51 53 54 51 47 50 48 50 45 42 40 37 35
42 43 45 48 50 50 50 50 51 53 55 55 55 54 53 53 52 48 42 46 52 47 42 39 37 37 40 43 44 46 45 46 48 46 41 42 41 41 37 32 28 20 16
43 45 47 49 49 50 50 51 52 53 55 55 55 54 53 51 48 40 42 47 46 42 40 40 40 41 41 38 35 35 38 41 43 45 33 38 36 33 35 24 19 14 18
Wind_Direction
318 316 315 312 312 313 314 312 311 311 310 310 311 310 308 307 306 302 301 299 297 296 295 292 289 288 288 288 286 283 281 279 277 276 275 273 272 269 267 266 266 266 265
310 309 310 310 310 311 312 311 311 311 311 310 311 310 309 306 306 306 304 303 302 299 297 296 294 291 288 287 287 285 283 281 279 276 275 274 273 273 271 269 267 265 265
301 304 304 305 310 312 310 311 310 309 310 310 308 308 307 306 304 303 300 298 296 294 292 290 289 288 287 285 282 281 279 276 276 276 275 273 271 271 271 270 268 266 265
305 302 303 307 305 307 307 308 307 307 307 306 305 302 301 303 303 299 297 295 292 293 295 294 290 287 284 283 282 281 278 274 272 271 272 273 272 271 269 267 267 266 265
296 299 301 303 304 305 306 306 306 306 304 302 303 302 303 302 300 300 295 296 299 295 291 290 290 289 288 285 281 280 280 276 275 272 270 268 267 268 268 267 265 265 264
291 295 297 299 301 302 303 302 302 302 302 302 301 300 300 300 301 297 299 296 295 295 292 294 295 293 292 293 292 284 278 271 267 268 268 268 266 265 264 265 265 263 261
293 295 298 300 300 300 301 302 303 304 303 303 302 301 301 301 301 300 299 300 301 302 302 295 291 293 290 289 289 288 287 283 281 274 267 261 264 264 263 262 261 262 262
295 298 299 299 302 303 304 304 304 304 305 307 307 307 305 303 303 303 300 298 298 297 296 297 297 296 293 291 288 286 284 284 284 280 277 272 267 261 259 260 260 259 257
299 301 302 303 303 304 304 304 304 305 305 305 307 310 312 313 311 310 309 309 307 306 305 303 302 300 298 294 291 289 286 283 280 278 279 277 273 268 263 260 258 256 250
305 305 306 307 307 307 307 307 306 307 308 309 309 307 308 311 314 311 311 313 310 308 307 304 303 302 299 295 294 290 288 284 282 282 279 275 272 268 264 261 257 257 256
310 311 311 311 311 311 310 310 310 309 310 313 314 314 311 309 310 309 310 312 310 308 308 306 304 303 300 297 293 289 285 282 281 278 276 275 276 272 266 264 263 259 256
315 316 317 316 315 314 313 313 313 314 315 314 314 313 312 313 313 310 308 309 309 311 311 311 311 308 305 301 297 293 288 288 285 280 276 273 271 271 270 266 261 257 256
319 320 320 320 318 317 316 317 318 317 315 314 313 311 311 312 311 311 312 311 310 311 311 312 312 309 306 303 300 297 295 291 285 279 278 275 273 273 273 270 267 265 260
322 322 322 321 319 317 318 319 318 315 313 313 312 311 310 312 312 312 312 311 310 309 310 313 310 307 306 305 304 301 297 292 290 285 280 276 272 271 272 272 271 266 263
321 321 322 320 319 320 319 318 317 315 314 314 312 311 312 313 311 312 313 312 311 311 310 313 309 308 306 307 305 305 301 299 295 293 289 287 283 281 278 273 274 275 266
320 321 320 320 320 320 320 319 317 316 315 313 312 312 312 311 312 313 313 312 309 306 306 310 308 308 307 304 305 304 302 301 298 296 294 291 290 287 283 280 276 277 274
319 319 319 320 321 321 319 318 317 316 314 313 312 311 313 313 314 314 313 311 309 307 304 309 308 308 305 306 307 304 303 300 299 297 295 293 293 292 290 287 282 279 278
319 319 320 322 322 320 319 318 317 315 314 312 313 314 314 314 316 315 314 312 310 309 306 306 309 310 310 310 307 305 304 302 301 301 299 296 297 292 288 279 278 275 274
319 321 322 322 320 320 320 318 316 315 315 316 316 315 317 318 318 316 314 313 311 310 310 308 308 310 310 309 307 306 305 305 303 302 300 299 294 291 289 285 282 280 274
321 322 321 321 322 321 320 318 316 317 317 316 317 318 320 319 317 317 315 315 314 311 310 309 310 306 309 309 305 305 302 302 302 301 303 300 300 298 290 287 283 279 275
321 322 323 322 322 321 319 319 319 319 319 319 320 321 319 318 318 316 315 313 309 309 310 300 302 307 304 303 303 305 304 304 304 306 305 304 301 295 293 288 283 279 276
323 323 324 323 321 321 322 322 320 320 321 322 321 320 319 319 317 316 313 311 310 303 307 305 303 299 303 306 309 307 307 306 306 312 310 304 304 302 298 291 286 286 275
324 326 323 321 323 324 323 322 322 322 321 321 321 320 319 318 318 316 314 315 313 308 303 303 304 306 310 314 312 312 311 308 307 309 307 303 305 299 296 292 288 282 274
326 323 324 326 325 325 324 324 322 321 321 322 322 320 320 320 321 320 320 314 312 308 312 312 309 312 313 314 312 309 307 306 304 304 304 302 302 298 299 295 291 285 277
324 326 328 328 326 326 325 325 323 323 324 323 322 322 322 323 322 321 319 313 309 317 317 314 312 314 316 314 311 308 308 307 307 308 314 305 303 303 302 301 298 293 268
328 329 330 328 326 325 326 326 326 325 324 323 321 322 323 322 323 324 313 312 316 320 320 322 322 322 317 317 318 317 317 314 314 314 326 311 313 314 310 313 314 296 253